Ft Lauderdale, FL

3:58 PM EDT on August 17, 2017 (GMT -0400)
Fort Lauderdale-Hollywood International

Weather History for KFLL - March, 2014

Change the Weather History Date:

Friday, March 28, 2014

  Actual Average Record
Temperature  
Mean Temperature 78 °F 74 °F  
Max Temperature 83 °F 81 °F 91 °F (1948)
Min Temperature 73 °F 67 °F 49 °F (1915)
Degree Days  
Heating Degree Days 0 0  
Month to date heating degree days 1 7  
Since 1 July heating degree days 81 109  
Cooling Degree Days 13 9  
Month to date cooling degree days 247 227  
Year to date cooling degree days 635 583  
Growing Degree Days 28 (Base 50)    
Moisture  
Dew Point 67 °F    
Average Humidity 75    
Maximum Humidity 88    
Minimum Humidity 62    
Precipitation  
Precipitation 0.00 in 0.11 in 2.03 in (1940)
Month to date precipitation 2.27 2.96  
Year to date precipitation 7.78 9.55  
Snow  
Snow 0.00 in - - ()
Month to date snowfall 0.0  
Since 1 July snowfall 0.0  
Snow Depth 0.00 in    
Sea Level Pressure  
Sea Level Pressure 30.12 in    
Wind  
Wind Speed 17 mph (SE)    
Max Wind Speed 26 mph    
Max Gust Speed 31 mph    
Visibility 10 miles    
Events      
T = Trace of Precipitation, MM = Missing Value Source: NWS Daily Summary

Daily Weather History Graph

Daily Weather History Graph

Search for Another Location

Airport or City:

Trip Planner

Search our weather history database for the weather conditions in past years. The results will help you decide how hot, cold, wet, or windy it might be!

Date:

Astronomy

Mar. 28, 2014 Rise Set
Actual Time 7:15 AM EDT 7:35 PM EDT
Civil Twilight 6:52 AM EDT 7:58 PM EDT
Nautical Twilight 6:25 AM EDT 8:25 PM EDT
Astronomical Twilight 5:58 AM EDT 8:53 PM EDT
Moon 5:32 AM EDT (3/28) 5:40 PM EDT (3/28)
Length of Visible Light 13h 05m
Length of Day
12h 19m
Waning Crescent, 6% of the Moon is Illuminated
Mar 28
Waning Crescent
Mar 30
New
Apr 7
First Quarter
Apr 15
Full
Apr 22
Last Quarter

Hourly Weather History & Observations

Time (EDT) Temp. Heat Index Dew Point Humidity Pressure Visibility Wind Dir Wind Speed Gust Speed Precip Events Conditions
12:53 AM 73.0 °F - 64.9 °F 76% 30.18 in 10.0 mi SE 19.6 mph - N/A   Scattered Clouds
1:53 AM 73.0 °F - 64.9 °F 76% 30.16 in 10.0 mi SE 19.6 mph 25.3 mph N/A   Mostly Cloudy
2:53 AM 73.9 °F - 64.0 °F 71% 30.14 in 10.0 mi SE 13.8 mph 21.9 mph N/A   Mostly Cloudy
3:53 AM 73.9 °F - 64.9 °F 73% 30.12 in 10.0 mi SE 19.6 mph 25.3 mph N/A   Mostly Cloudy
4:53 AM 73.0 °F - 66.0 °F 79% 30.12 in 10.0 mi SE 17.3 mph - N/A   Mostly Cloudy
5:53 AM 73.9 °F - 64.9 °F 73% 30.12 in 10.0 mi SE 19.6 mph - N/A   Mostly Cloudy
6:53 AM 73.9 °F - 64.9 °F 73% 30.13 in 10.0 mi ESE 19.6 mph - N/A   Mostly Cloudy
7:53 AM 75.0 °F - 64.0 °F 69% 30.15 in 10.0 mi ESE 17.3 mph - N/A   Mostly Cloudy
8:53 AM 75.9 °F - 64.9 °F 69% 30.16 in 10.0 mi ESE 18.4 mph - N/A   Mostly Cloudy
9:53 AM 78.1 °F - 64.9 °F 64% 30.16 in 10.0 mi SE 21.9 mph 26.5 mph N/A   Mostly Cloudy
10:53 AM 80.1 °F 82.1 °F 66.0 °F 62% 30.17 in 10.0 mi SE 21.9 mph 27.6 mph N/A   Mostly Cloudy
11:53 AM 80.1 °F 82.3 °F 66.9 °F 64% 30.17 in 10.0 mi ESE 21.9 mph - N/A   Mostly Cloudy
12:53 PM 82.0 °F 84.9 °F 68.0 °F 62% 30.14 in 10.0 mi SE 25.3 mph - N/A   Mostly Cloudy
1:53 PM 82.0 °F 84.9 °F 68.0 °F 62% 30.12 in 10.0 mi SE 23.0 mph 28.8 mph N/A   Mostly Cloudy
2:53 PM 81.0 °F 83.8 °F 68.0 °F 65% 30.10 in 10.0 mi SE 21.9 mph 28.8 mph N/A   Mostly Cloudy
3:53 PM 80.1 °F 82.7 °F 68.0 °F 67% 30.08 in 10.0 mi SE 20.7 mph - N/A   Mostly Cloudy
4:53 PM 79.0 °F - 68.0 °F 69% 30.08 in 10.0 mi SE 17.3 mph - N/A   Overcast
5:53 PM 78.1 °F - 69.1 °F 74% 30.06 in 10.0 mi ESE 13.8 mph - N/A   Mostly Cloudy
6:53 PM 78.1 °F - 70.0 °F 76% 30.08 in 10.0 mi SE 12.7 mph - N/A   Mostly Cloudy
7:53 PM 77.0 °F - 70.0 °F 79% 30.09 in 10.0 mi SE 10.4 mph - N/A   Mostly Cloudy
8:53 PM 77.0 °F - 71.1 °F 82% 30.09 in 10.0 mi SE 10.4 mph - N/A   Scattered Clouds
9:53 PM 77.0 °F - 71.1 °F 82% 30.09 in 10.0 mi ESE 11.5 mph - N/A   Clear
10:53 PM 77.0 °F - 71.1 °F 82% 30.11 in 10.0 mi ESE 11.5 mph - N/A   Overcast
11:53 PM 77.0 °F - 73.0 °F 88% 30.10 in 10.0 mi SE 12.7 mph - N/A   Scattered Clouds